This demonstration page uses our WeatherBlox Daily Observations layout. Learn more.

Left ArrowRight Arrow

44.8408, -93.29828

Hourly Observations for September 13, 2022

Temp ( °F °C ) Dew Point ( °F °C ) Humidity (%) Winds ( mph kmh ) Pressure ( in mb ) Visibility ( mi km ) Precip ( " mm )
12:53 am 00:53 Clear 61 16.1 50 10 67 67 SW 3 6 29.89 1012 10 16 0.00 0.00
1:53 am 01:53 Clear 59 15 50 10 72 72 Calm 29.89 1012 10 16 0.00 0.00
2:53 am 02:53 Clear 58 14.4 49 9.4 72 72 Calm 29.89 1012 10 16 0.00 0.00
3:53 am 03:53 Clear 57 13.9 50 10 77 77 SSW 3 6 29.89 1012 10 16 0.00 0.00
4:53 am 04:53 Clear 56 13.3 49 9.4 77 77 Calm 29.90 1012 10 16 0.00 0.00
5:53 am 05:53 Clear 55 12.8 49 9.4 80 80 WSW 5 7 29.91 1013 10 16 0.00 0.00
6:53 am 06:53 Partly Cloudy with Patchy Fog 55 12.8 48 8.9 77 77 Calm 29.93 1013 10 16 0.00 0.00
7:53 am 07:53 Mostly Sunny 56 13.3 48 8.9 75 75 SW 3 6 29.94 1014 10 16 0.00 0.00
8:53 am 08:53 Mostly Sunny 60 15.6 50 10 69 69 Calm 29.95 1014 10 16 0.00 0.00
9:53 am 09:53 Mostly Sunny 67 19.4 49 9.4 52 52 W 6 9 29.95 1014 10 16 0.00 0.00
10:53 am 10:53 Mostly Sunny 72 22.2 49 9.4 44 44 W 5 7 29.95 1014 10 16 0.00 0.00
11:53 am 11:53 Mostly Sunny 75 23.9 48 8.9 38 38 WSW 6 9 29.96 1014 10 16 0.00 0.00
12:53 pm 12:53 Mostly Sunny 76 24.4 46 7.8 35 35 WSW 9 15 29.95 1014 10 16 0.00 0.00
1:53 pm 13:53 Mostly Sunny 78 25.6 44 6.7 30 30 VRB 7 11 29.94 1014 10 16 0.00 0.00
2:53 pm 14:53 Mostly Sunny 80 26.7 46 7.8 30 30 WNW 6 9 29.93 1014 10 16 0.00 0.00
3:53 pm 15:53 Mostly Sunny 79 26.1 44 6.7 29 29 Calm 29.93 1013 10 16 0.00 0.00
4:53 pm 16:53 Mostly Sunny 80 26.7 46 7.8 30 30 W 3 6 29.93 1013 10 16 0.00 0.00
5:53 pm 17:53 Mostly Sunny 78 25.6 46 7.8 32 32 VRB 5 7 29.94 1014 10 16 0.00 0.00
6:53 pm 18:53 Mostly Sunny 77 25 47 8.3 35 35 S 5 7 29.94 1014 10 16 0.00 0.00
7:53 pm 19:53 Mostly Clear 75 23.9 48 8.9 38 38 SSW 5 7 29.95 1014 10 16 0.00 0.00
8:53 pm 20:53 Partly Cloudy 72 22.2 52 11.1 49 49 SW 3 6 29.96 1015 10 16 0.00 0.00
9:53 pm 21:53 Partly Cloudy 68 20 51 10.6 55 55 W 3 6 29.97 1015 10 16 0.00 0.00
10:53 pm 22:53 Mostly Clear 68 20 51 10.6 55 55 Calm 29.98 1015 10 16 0.00 0.00
11:53 pm 23:53 Mostly Clear 65 18.3 52 11.1 63 63 Calm 29.99 1016 10 16 0.00 0.00

Powered by AerisWeather